Wind_Gust
18 21 24 25 25 23 21 22 20 10 10 10 11 13 16 16 16 10 12 10 12 18 20 21 21 23 22 23 18 16 16 16 18 19 21 21 23 24 25 25 25 22 23 22 24 24 25 23 22 25 26 25 21 21 22 24 25 26 29 26 26 26 26 24 22 24 26 25 26 23 24 24 23 21 19 19 18 18 17 17 19 18 17 16 16 16
16 23 23 22 19 15 15 15 11 10 10 15 16 16 19 17 18 13 12 11 9 13 17 13 15 20 22 24 23 16 16 20 20 22 23 23 24 24 25 26 26 24 20 22 24 20 22 25 21 25 26 23 24 24 23 25 27 28 28 28 28 25 26 26 25 24 26 26 25 25 26 25 23 22 22 21 20 19 18 17 17 16 16 17 16 16
23 26 20 20 11 10 11 13 13 15 15 16 19 17 19 21 15 11 10 11 12 13 17 15 17 18 21 25 24 21 20 21 21 22 23 25 26 27 27 26 25 23 24 23 24 22 25 25 22 25 23 21 22 23 25 25 26 27 28 28 27 27 27 25 27 27 27 24 23 26 28 25 25 21 21 22 19 19 19 17 17 16 16 16 17 16
21 24 23 14 13 13 13 14 14 15 16 16 18 20 21 12 12 14 18 13 12 17 19 19 22 22 23 25 25 23 21 21 21 22 24 25 27 27 27 24 25 26 29 30 28 26 27 27 24 24 23 20 21 22 24 26 27 28 26 27 27 27 26 26 27 26 24 23 23 23 22 20 19 21 20 17 18 18 18 19 17 17 16 16 16 17
19 16 9 16 15 17 17 16 16 19 20 19 19 20 21 16 14 16 16 14 13 18 18 20 23 25 24 27 27 23 20 20 19 18 21 23 26 25 24 24 26 29 30 31 31 29 29 27 26 27 23 20 22 22 23 25 28 27 26 24 24 25 21 20 22 25 25 26 24 22 21 19 19 18 18 19 20 19 18 18 18 17 16 16 16 16
20 14 11 16 19 20 20 20 22 20 23 21 18 21 20 17 20 20 18 14 20 18 20 16 24 25 21 22 24 18 21 22 19 17 18 19 23 25 26 28 26 26 27 28 29 31 32 32 25 22 20 20 21 22 22 22 26 25 26 24 20 16 13 17 20 24 25 25 26 26 25 25 25 24 23 23 22 22 20 20 16 17 17 16 15 16
14 17 17 16 17 19 22 21 18 20 23 20 16 16 19 21 20 17 14 14 18 24 19 14 19 22 12 17 19 18 18 19 18 13 11 13 17 24 28 29 28 27 27 24 24 24 22 19 19 18 18 19 22 22 21 22 24 25 23 22 21 22 20 19 18 23 24 26 27 25 24 22 24 23 22 19 19 18 18 17 16 16 15 16 16 14
22 15 16 15 15 18 19 22 18 18 22 24 10 12 14 16 16 15 17 18 21 13 10 15 19 22 25 23 18 16 18 19 17 12 9 11 12 18 23 25 24 26 23 21 21 22 21 18 16 17 16 19 24 20 15 17 21 23 21 20 21 18 19 18 16 21 24 26 26 23 23 23 22 21 21 21 21 17 18 17 17 16 16 15 15 15
18 18 19 20 20 23 23 18 12 18 23 15 12 8 11 11 12 13 16 18 14 13 22 23 18 24 26 20 15 16 22 23 18 12 12 12 12 13 17 22 23 20 19 19 18 19 20 18 18 19 23 25 23 15 18 18 19 18 21 22 23 23 20 19 20 21 22 19 20 21 19 22 16 20 22 20 20 20 17 16 16 15 16 15 13 14
14 14 19 20 22 24 21 21 17 18 22 19 10 10 13 11 11 13 16 17 13 16 20 21 21 27 23 21 21 17 21 21 15 13 12 13 13 11 13 15 19 20 19 20 19 18 19 21 22 23 23 20 12 14 15 14 17 20 23 24 27 20 19 20 19 21 21 17 12 15 12 14 12 16 21 19 20 19 18 18 17 16 15 15 13 13
13 9 9 17 20 20 17 17 17 20 20 13 11 15 16 15 14 14 15 14 16 21 25 19 16 21 28 17 13 14 12 17 17 13 14 15 12 10 12 14 18 20 19 20 19 18 19 19 20 17 13 13 13 11 12 15 15 15 17 20 23 23 16 18 17 17 13 17 17 14 13 15 19 20 19 19 20 20 19 20 20 18 17 17 17 15
15 14 16 17 16 9 10 11 11 13 14 14 19 21 17 17 14 17 18 15 19 24 15 11 15 17 25 20 12 15 10 11 15 18 18 17 12 10 11 17 17 16 17 16 19 20 19 19 18 17 16 17 16 18 21 19 18 12 10 12 10 21 20 19 16 17 16 13 18 15 16 17 18 21 19 19 20 21 21 21 20 19 18 17 17 16
20 21 16 15 15 15 15 16 19 16 16 19 20 20 21 22 18 23 24 21 26 20 15 12 13 20 27 18 15 12 11 12 13 15 16 14 13 9 12 13 16 18 15 16 17 19 19 21 22 20 19 15 13 12 15 16 13 13 15 11 16 16 21 21 15 19 16 16 13 14 19 17 19 20 18 18 19 20 22 22 20 19 18 18 17 16
22 20 22 22 17 22 21 23 22 22 23 23 25 22 24 25 21 19 24 21 22 16 14 13 11 26 20 15 16 14 13 13 13 12 12 12 9 9 13 14 16 18 17 16 17 18 20 20 22 18 17 16 15 14 14 13 12 16 16 17 18 17 17 17 22 21 16 13 14 14 14 15 10 14 15 16 18 19 19 19 19 18 17 17 16 16
19 23 28 23 26 23 28 28 20 17 24 27 22 26 23 24 25 18 25 23 21 15 13 13 14 19 23 15 12 14 12 11 12 12 10 10 11 10 12 13 14 15 14 16 17 17 16 16 16 18 16 16 17 17 18 19 19 17 21 22 20 24 24 24 23 20 18 14 12 12 9 11 10 14 15 15 16 17 18 17 17 16 16 16 16 16
20 21 13 24 11 20 26 26 26 20 15 21 21 21 23 21 18 25 12 16 15 13 15 19 19 12 17 14 11 10 11 10 9 10 9 11 10 11 15 17 16 16 15 13 13 16 17 17 18 18 17 16 16 15 19 21 19 22 23 23 23 26 25 23 23 19 18 15 16 15 15 13 13 12 14 14 14 15 15 15 17 16 15 15 15 15
17 23 15 16 12 17 18 22 28 23 27 21 21 24 24 14 18 10 8 11 3 12 22 10 17 21 18 16 11 13 11 10 9 9 9 11 12 11 12 14 15 15 15 16 17 17 17 17 17 20 17 15 16 19 23 22 20 21 22 21 22 22 23 23 20 17 14 18 18 18 16 15 14 14 14 14 14 16 15 15 16 16 15 14 14 15
16 14 14 15 19 19 11 10 15 23 20 20 26 23 15 11 15 18 20 12 16 22 15 14 17 19 18 16 12 14 13 9 9 9 9 11 11 13 13 13 14 15 15 16 17 17 17 17 17 18 18 18 19 20 19 20 21 21 21 22 24 24 27 26 24 21 17 20 18 18 17 16 15 14 14 15 17 17 17 17 17 16 16 15 14 15
17 20 18 15 10 17 13 14 16 17 17 24 13 13 20 17 18 22 21 21 18 18 19 18 15 20 19 15 17 15 12 9 9 10 10 11 10 11 12 13 15 15 15 15 16 16 19 21 19 17 18 17 19 21 21 20 23 22 19 19 24 28 29 29 25 27 23 21 18 17 17 16 15 14 15 15 16 16 18 18 18 17 17 15 15 15
14 19 19 12 14 16 17 22 24 24 22 21 14 21 15 16 19 17 25 20 21 17 15 12 15 17 12 16 11 15 10 8 9 8 10 9 9 10 11 14 13 13 12 12 13 13 15 19 21 21 19 18 18 21 23 21 20 19 19 19 21 22 23 24 24 21 25 20 18 17 16 15 16 16 16 16 18 20 20 20 19 18 16 16 16 15
16 14 17 20 14 15 23 27 24 22 24 25 26 26 20 22 12 20 13 22 20 18 16 17 15 15 15 13 12 13 10 10 9 10 10 10 9 9 11 13 11 11 12 12 11 11 13 17 20 19 18 20 18 17 18 22 21 20 20 20 22 24 24 25 26 24 22 20 19 19 18 17 15 15 16 18 20 21 20 20 19 19 17 17 16 16
17 18 21 17 25 24 17 15 14 14 15 20 24 25 23 21 21 20 20 18 22 21 17 13 19 14 12 11 10 11 11 11 10 10 12 11 9 7 8 10 10 10 11 11 10 11 11 11 15 18 20 18 17 16 17 18 18 19 18 21 22 24 26 25 27 27 24 18 17 17 18 21 18 18 18 19 21 20 22 20 19 17 17 16 16 15
16 14 22 23 21 20 15 17 14 11 10 14 18 21 19 20 20 24 23 17 20 22 14 18 18 13 12 9 8 8 7 9 10 12 13 13 13 14 17 18 18 19 17 12 9 10 10 11 13 17 19 16 14 15 15 17 17 18 18 21 23 26 26 26 26 24 19 16 16 17 19 22 23 21 19 20 21 20 20 19 17 18 17 17 16 14
5 18 21 24 21 15 16 15 10 7 10 15 15 14 18 24 18 23 24 15 17 13 18 18 19 14 8 8 9 9 9 10 8 10 13 16 17 16 13 16 19 19 19 21 23 21 14 10 11 13 13 13 14 14 13 14 15 18 20 21 23 24 26 26 25 18 17 18 20 21 21 24 24 23 23 23 21 19 18 18 17 17 17 17 16 16
22 20 21 18 25 23 18 18 21 15 16 14 12 12 12 15 14 14 20 16 20 19 18 20 21 13 11 11 9 12 10 11 16 19 18 17 15 15 16 17 18 18 21 21 20 21 22 23 18 16 14 14 13 13 11 14 13 15 17 18 21 23 24 25 23 20 21 21 20 18 20 24 25 24 24 22 21 18 17 17 17 16 18 17 16 16
10 10 24 28 25 27 28 28 28 21 21 15 11 10 12 10 8 17 18 19 22 17 18 20 17 14 11 11 12 12 16 15 16 15 15 15 14 15 15 17 18 19 19 21 20 22 23 21 23 20 12 14 12 14 12 13 13 13 14 16 16 21 21 24 23 23 23 22 20 19 20 21 22 21 20 20 18 18 17 17 16 17 17 17 17 16
15 10 11 13 19 19 17 15 14 12 14 17 14 12 13 11 11 13 15 19 24 15 19 18 14 19 15 15 15 15 13 13 13 13 14 13 14 16 16 17 17 17 17 18 18 16 17 19 19 19 18 14 12 11 10 12 14 17 18 18 16 16 20 20 21 23 24 21 19 20 19 21 21 20 18 18 18 18 18 18 17 19 18 16 16 15
16 15 12 10 11 13 12 13 13 11 14 14 12 12 13 14 10 12 15 16 18 17 22 18 19 20 18 16 15 16 14 13 13 12 12 14 14 16 16 16 14 18 18 17 18 18 17 16 17 18 17 18 16 13 13 11 14 16 18 20 19 18 16 18 21 22 23 23 21 20 21 21 20 20 20 19 20 20 20 19 19 18 17 17 15 14
17 16 14 15 9 9 10 14 13 17 16 14 15 14 15 15 12 11 9 12 15 12 13 14 13 19 20 19 17 16 15 13 15 14 13 13 14 15 16 18 18 18 18 20 19 17 17 17 16 17 18 18 15 16 17 17 18 19 20 19 18 18 18 19 20 21 22 22 22 22 21 21 18 18 18 23 22 22 21 20 19 18 17 15 14 13
16 13 17 16 16 10 9 8 8 15 16 18 17 16 14 13 13 13 13 14 14 13 11 16 20 19 15 14 14 15 15 14 16 15 15 16 16 16 18 18 18 19 20 20 20 18 20 19 18 17 17 19 19 17 15 18 19 20 20 20 20 18 16 17 19 21 20 21 21 22 23 24 19 19 16 18 22 21 20 20 18 17 15 14 13 12
14 13 16 19 19 15 11 11 11 12 15 21 18 16 16 12 10 14 10 13 10 12 11 13 15 15 13 11 13 12 14 16 17 18 18 16 16 17 18 18 18 19 20 19 20 20 20 20 20 18 20 19 18 18 13 15 19 19 20 20 20 20 20 23 23 23 21 22 22 22 22 21 22 20 19 17 17 17 18 16 15 15 15 13 11 11
15 11 16 18 15 14 14 13 12 12 12 18 20 21 20 17 13 15 12 13 15 8 11 11 10 8 11 13 15 14 15 18 19 17 17 17 16 16 19 19 19 19 19 19 20 20 21 21 21 20 18 17 16 14 13 14 18 20 20 19 20 17 17 19 20 20 19 20 21 21 21 20 21 21 19 17 17 17 19 18 17 12 12 11 10 10
10 12 11 15 17 14 13 13 15 11 9 14 17 17 16 8 13 13 8 13 13 16 11 11 14 14 13 11 14 15 16 18 19 17 16 17 17 18 20 20 20 20 20 20 21 22 22 22 21 21 19 18 18 16 14 14 17 20 19 20 17 17 19 20 20 20 20 20 19 19 18 18 19 19 17 16 17 16 16 16 16 15 14 13 11 12
8 12 11 11 12 15 12 13 11 11 14 10 9 13 12 12 15 12 9 12 15 15 11 14 14 15 14 12 14 15 16 18 17 17 16 14 16 18 21 21 20 19 20 20 21 22 22 23 23 23 19 18 16 14 13 15 18 19 19 18 15 19 17 20 21 21 21 22 21 19 18 19 20 20 19 18 18 18 17 17 17 14 14 13 13 14
8 11 9 12 8 11 11 13 13 12 13 8 8 16 14 9 15 13 10 12 11 11 11 16 15 15 15 16 18 19 19 20 21 19 19 18 18 19 21 21 20 21 22 22 23 23 23 22 21 21 21 19 15 13 14 17 16 19 20 19 20 19 19 22 24 23 22 21 19 19 18 19 20 20 20 19 20 19 18 17 16 16 14 14 13 13
9 11 11 9 10 14 13 15 10 10 9 7 8 13 14 6 12 10 10 12 14 11 11 15 14 16 18 19 20 19 21 22 24 23 21 19 18 19 22 21 19 20 22 22 23 24 23 21 20 19 20 19 17 16 17 17 15 21 22 21 22 19 20 22 24 22 21 21 20 20 19 18 19 20 19 19 19 20 20 18 17 17 15 14 14 12
14 14 13 11 10 9 8 12 15 15 12 16 9 12 20 11 13 10 7 7 13 15 11 16 16 16 18 17 18 19 18 19 23 23 20 19 19 21 23 22 21 21 22 21 21 23 22 18 18 19 19 18 17 18 20 17 17 20 21 21 21 22 22 24 24 20 20 20 20 19 19 18 17 18 18 17 17 17 17 17 16 15 14 15 14 13
13 12 10 11 8 10 15 18 16 13 9 13 12 13 11 10 9 9 8 3 11 12 9 13 17 18 16 15 16 17 12 16 19 15 16 18 19 19 21 21 22 22 20 19 19 20 21 22 20 20 21 18 19 19 18 17 17 17 20 20 20 22 23 24 22 19 19 20 18 18 18 17 16 17 16 16 18 16 15 14 14 13 12 13 12 14
11 14 10 11 12 11 9 12 12 10 10 11 18 17 14 11 8 7 8 7 11 8 6 11 16 18 20 19 13 7 12 10 12 10 10 14 17 19 22 23 23 22 21 20 20 19 19 21 21 19 18 18 19 19 17 16 17 19 20 19 20 21 23 22 21 20 20 19 18 18 18 18 18 18 17 16 15 14 13 12 11 10 11 11 11 10
19 12 10 16 10 11 10 14 15 16 11 17 20 18 15 10 9 8 8 8 11 11 6 9 14 17 16 13 9 6 7 12 20 14 7 15 16 17 19 21 20 20 20 18 18 18 18 17 21 22 22 21 19 17 17 15 17 18 19 18 18 22 23 22 20 18 18 18 17 17 19 18 18 17 17 16 15 14 13 12 12 11 11 9 10 10
15 16 17 17 17 18 16 20 16 12 12 18 21 20 15 7 10 8 10 12 13 11 7 8 12 12 11 8 7 5 12 15 21 18 12 13 17 20 20 19 18 17 16 15 14 12 17 17 17 17 16 15 16 17 16 16 17 18 17 17 20 22 21 19 18 18 18 18 18 19 19 18 17 17 16 15 15 14 13 13 12 10 9 10 10 10
15 12 17 15 18 15 15 19 19 15 10 23 26 18 13 10 7 10 12 11 10 7 8 12 12 9 6 10 11 16 19 21 18 16 16 16 18 19 19 19 17 15 13 13 12 13 14 15 15 14 14 13 14 15 16 17 19 17 17 18 20 17 16 17 17 17 17 18 19 18 18 18 16 15 15 14 13 13 13 13 12 12 11 11 11 11
15 12 13 16 9 11 13 17 13 14 17 27 27 13 23 11 10 9 13 12 10 10 11 13 12 11 13 17 19 22 22 19 17 17 16 16 16 16 15 15 17 18 17 14 12 12 12 12 14 14 12 12 12 12 13 14 16 15 16 20 16 14 15 15 16 17 17 18 18 18 17 17 16 15 15 14 13 13 13 11 12 11 11 10 10 10
19 12 15 13 17 14 16 16 15 12 16 19 21 16 13 10 13 11 10 9 14 13 12 16 17 15 17 20 19 18 19 20 16 16 17 16 16 15 14 15 15 16 15 13 11 10 11 12 13 13 12 13 13 13 13 14 16 15 18 17 14 13 13 13 14 16 18 17 16 16 16 16 15 15 13 12 12 12 13 12 11 12 11 10 9 9
23 23 15 16 16 16 16 15 10 7 13 17 17 15 11 11 9 9 13 11 11 13 14 17 18 16 17 18 19 18 17 16 15 14 15 14 13 14 14 15 15 14 13 12 13 11 12 15 15 16 14 13 13 13 14 13 16 16 17 13 12 12 12 11 11 12 13 13 12 10 11 11 12 12 11 11 12 12 13 12 11 11 11 10 10 9
13 14 17 30 33 28 25 17 14 15 17 20 20 19 16 14 14 15 14 15 15 15 15 18 18 19 16 14 18 16 15 14 15 14 14 13 13 13 12 12 12 12 11 11 12 12 13 14 14 15 15 14 12 13 12 13 14 16 14 11 11 11 11 12 12 13 14 14 14 14 13 12 11 12 11 10 11 11 12 11 12 12 11 10 9 9
17 12 16 19 14 13 18 15 18 18 18 19 22 22 21 19 17 17 18 17 16 17 19 17 17 17 16 14 14 13 12 13 14 14 13 11 10 11 12 12 12 12 11 12 11 11 13 13 16 15 14 14 12 13 12 12 12 13 12 12 12 12 12 12 11 11 11 11 11 11 13 13 13 11 12 11 11 12 12 13 12 11 12 11 11 10
19 12 24 22 22 22 19 18 20 20 20 19 21 23 22 20 20 19 21 20 21 20 19 17 16 16 13 14 12 11 11 9 12 13 14 14 13 13 12 12 11 9 8 8 7 7 9 11 13 14 14 14 12 11 11 11 11 11 11 11 12 12 12 13 12 11 11 11 11 12 12 13 4 9 13 13 14 15 15 14 13 13 14 15 14 14
13 12 17 16 26 25 21 18 20 21 21 21 21 21 22 22 21 20 21 23 23 23 21 17 14 13 11 10 10 9 10 10 10 9 13 15 15 15 15 15 13 12 11 10 8 8 10 11 12 13 14 14 12 12 12 11 10 11 10 10 11 10 11 11 10 10 10 10 11 11 11 11 13 14 12 13 13 15 17 16 16 14 12 13 15 15
16 23 15 13 18 17 17 17 9 12 17 19 19 20 21 20 21 22 21 20 21 21 20 19 16 13 11 10 9 11 11 9 9 9 11 12 13 13 13 13 13 14 13 11 9 9 10 10 12 12 13 13 12 12 12 11 11 10 10 10 10 10 10 9 9 9 10 11 11 11 10 10 10 9 9 10 10 9 14 9 8 11 15 12 10 7
18 18 14 15 14 19 16 13 12 20 20 19 18 17 17 18 18 19 19 19 18 19 20 21 18 15 13 11 9 9 10 11 10 10 12 12 13 13 11 9 11 12 12 11 11 11 11 11 11 12 12 12 11 11 12 12 12 12 11 10 10 10 10 9 8 9 10 11 13 11 9 11 10 10 10 10 9 8 8 15 16 8 7 5 5 5
Wind_Speed
7 8 9 10 11 11 12 13 11 3 3 2 3 5 6 6 6 2 4 3 3 7 9 11 11 12 12 12 9 8 8 8 9 10 10 11 12 12 12 12 12 12 13 12 14 14 13 13 10 11 12 13 13 12 14 14 15 15 15 15 15 13 14 12 10 11 12 11 9 8 9 10 10 8 9 7 7 7 6 7 8 8 6 6 6 6
6 9 10 12 11 8 8 8 5 4 4 7 7 7 7 7 7 5 2 2 2 5 7 5 6 10 12 13 13 7 8 10 11 11 12 12 13 13 14 14 15 13 9 13 14 12 12 14 11 11 13 14 14 11 13 15 15 15 16 16 15 13 14 13 12 11 11 11 9 10 11 10 9 8 6 9 7 7 6 7 7 6 6 7 7 6
9 11 10 11 4 3 5 7 6 8 7 8 8 7 8 8 6 1 2 3 3 4 4 6 8 8 11 14 13 11 11 10 11 12 12 14 14 14 14 14 14 13 13 13 14 12 13 14 13 13 13 11 12 12 14 14 15 16 16 14 15 13 13 13 12 11 10 9 8 12 12 11 7 8 10 10 8 8 8 7 7 6 6 7 7 7
8 10 13 7 6 6 5 7 7 7 7 6 7 8 8 2 2 3 8 5 4 5 8 9 10 9 12 14 14 13 11 11 12 13 14 14 14 15 15 13 12 14 15 17 17 16 15 15 13 13 13 10 10 12 14 14 16 15 14 15 15 14 14 13 14 13 11 11 12 12 9 7 7 7 5 8 8 8 8 8 7 6 6 7 6 7
7 7 1 7 8 9 9 8 9 8 8 9 10 9 8 7 5 6 3 4 6 10 10 10 9 10 11 13 12 12 11 11 10 10 11 12 13 14 13 13 13 16 17 16 17 18 17 16 15 15 13 10 11 13 13 14 15 13 16 15 14 13 9 7 10 12 8 10 11 6 4 10 8 8 8 8 8 8 7 7 7 7 7 7 7 7
10 6 4 8 10 11 11 9 11 9 9 9 10 12 11 9 10 10 10 6 7 7 9 7 7 9 10 12 12 7 9 11 10 9 9 10 12 13 15 16 16 14 15 16 16 17 17 17 14 13 12 11 11 12 11 12 15 15 14 13 10 7 5 6 8 10 12 8 7 10 7 6 4 4 8 9 9 9 8 8 7 8 8 7 7 7
4 8 8 7 9 11 12 10 9 11 9 9 5 7 9 11 12 9 6 5 6 9 7 6 7 6 2 7 9 8 9 10 8 5 4 5 7 12 14 15 15 15 14 14 13 14 14 11 12 11 8 11 12 13 12 13 13 15 13 12 13 12 8 5 9 9 8 11 11 12 10 9 9 11 9 7 8 8 7 7 7 6 7 7 7 7
10 7 6 8 7 8 8 9 9 9 9 8 2 4 7 8 8 7 7 7 8 4 3 7 6 7 9 9 9 8 9 10 8 5 1 1 4 8 11 14 14 13 12 11 11 11 11 10 10 10 11 11 14 12 9 8 10 12 13 12 14 9 10 9 7 11 10 8 8 9 10 6 8 8 8 8 9 7 7 7 7 6 6 7 7 6
10 9 10 11 10 8 8 7 5 9 9 3 5 2 4 4 4 5 7 7 5 4 8 9 9 8 9 8 6 7 12 13 9 3 0 1 3 5 8 10 13 12 10 10 10 11 12 11 11 12 14 16 14 8 5 8 11 10 10 10 11 7 8 11 12 9 10 8 8 6 9 11 7 9 10 7 8 9 7 8 7 6 6 6 6 5
5 6 9 11 9 9 10 11 8 9 9 10 4 4 5 4 4 5 6 6 5 5 8 10 10 9 9 9 9 8 11 11 4 2 2 3 4 3 5 8 10 11 10 10 9 9 10 12 13 14 13 12 6 3 4 4 3 7 9 11 14 12 9 10 11 7 10 6 5 7 2 3 3 4 2 7 9 8 8 9 8 7 7 6 5 5
5 3 2 7 8 9 8 9 9 10 12 5 3 6 7 6 5 5 5 5 5 8 11 11 7 9 10 7 5 4 1 5 4 2 4 5 3 2 4 7 8 10 9 9 10 9 10 11 9 7 2 7 7 5 7 5 4 3 6 8 12 13 8 10 10 8 7 9 7 7 5 4 2 3 7 8 9 9 9 9 10 8 7 7 7 5
7 6 6 6 8 2 3 3 4 6 6 7 7 8 6 6 5 6 6 6 6 8 6 3 6 8 10 8 2 6 2 2 5 5 6 6 2 1 4 7 8 7 7 8 9 9 8 7 8 8 8 7 5 6 7 7 7 7 5 5 5 10 10 10 8 8 8 7 9 8 10 8 7 6 8 9 10 10 11 10 9 8 8 7 7 7
9 9 7 8 7 8 6 6 8 7 7 8 8 8 8 7 4 7 8 8 9 7 5 3 5 8 11 7 4 4 2 3 4 5 5 5 4 1 4 5 7 8 8 8 9 10 9 10 11 12 11 8 7 5 7 6 4 6 3 4 8 8 7 8 9 9 5 5 7 8 11 9 10 11 9 9 9 9 9 9 9 9 8 7 7 6
8 11 12 12 9 10 10 9 8 8 10 10 10 9 9 9 7 7 9 6 8 6 5 4 3 11 8 3 6 5 5 5 4 4 5 4 3 2 5 5 7 8 9 8 9 9 10 10 12 10 9 8 7 8 8 6 6 9 10 10 9 10 8 10 12 13 9 7 8 5 5 8 5 8 8 7 8 9 8 8 9 8 7 7 7 7
7 9 12 12 9 12 13 12 8 7 10 11 10 10 9 9 7 6 8 8 7 4 3 4 4 6 11 3 4 4 4 4 4 4 4 2 3 3 3 5 7 7 7 7 8 8 8 8 10 10 9 8 7 9 10 10 10 9 12 12 13 15 15 16 15 11 10 8 5 5 4 5 5 7 7 7 7 8 8 8 8 7 6 6 7 7
11 8 3 14 3 10 14 14 12 10 6 8 9 9 9 7 6 9 3 6 4 3 4 6 5 3 2 5 2 1 3 3 2 3 2 2 2 4 5 6 6 6 7 6 5 8 10 10 10 10 10 9 9 9 9 9 10 12 13 14 12 11 12 14 14 12 10 8 8 10 9 7 7 6 7 6 6 6 8 8 7 7 7 6 6 6
5 8 7 8 5 9 10 12 14 12 9 7 7 9 10 6 7 2 2 3 1 3 7 3 5 7 5 5 3 4 4 2 1 1 2 3 3 2 3 4 5 5 5 6 7 8 9 9 9 10 8 8 9 11 12 10 11 14 13 12 13 13 13 13 12 10 7 8 8 9 8 8 7 7 8 7 8 8 7 7 7 7 6 6 6 6
6 4 6 7 10 10 5 3 7 12 9 4 10 9 2 3 6 5 6 3 5 8 3 3 7 8 6 3 1 5 4 1 2 2 2 5 4 3 3 3 4 6 6 6 7 8 8 9 10 10 9 10 11 12 11 8 6 11 11 13 15 14 17 16 15 13 9 8 9 9 9 8 8 7 8 8 9 9 8 8 7 7 7 7 6 6
6 7 7 8 2 8 6 6 7 9 9 10 4 4 7 5 8 8 4 8 7 6 5 7 6 8 6 2 4 6 4 2 1 3 3 4 3 2 2 5 8 7 6 6 7 8 7 8 9 9 10 9 11 12 12 10 9 9 10 12 14 15 15 17 14 15 13 12 9 7 9 9 8 7 7 7 9 9 9 9 8 8 8 7 7 7
4 6 5 4 6 7 8 8 9 10 11 12 6 8 6 4 7 6 6 7 6 6 6 4 4 5 1 5 4 5 2 2 3 1 3 3 3 2 3 6 5 6 5 5 5 6 7 7 8 9 10 10 10 12 13 12 11 11 11 12 11 13 13 14 13 12 14 11 9 9 8 8 8 8 8 8 9 10 10 10 9 9 9 8 7 7
4 4 5 7 6 6 8 9 10 9 10 10 10 10 7 7 2 7 2 7 6 6 5 5 5 3 4 3 3 5 3 3 1 2 3 3 2 3 4 5 4 5 4 4 3 4 5 7 7 8 9 9 8 9 10 12 11 11 11 11 12 14 15 14 14 13 11 9 10 11 11 9 7 7 8 10 11 11 11 10 9 9 8 8 8 7
4 4 8 5 9 9 5 3 4 3 4 8 10 10 10 9 9 9 7 6 8 6 5 3 6 4 3 2 3 4 4 3 2 3 3 3 2 1 1 4 2 3 4 4 4 5 5 5 5 7 9 8 7 8 9 9 10 10 10 10 12 14 13 14 13 13 13 11 8 10 9 8 6 7 9 11 12 12 11 10 9 9 9 9 8 7
3 4 8 9 6 7 4 8 6 3 1 3 6 8 8 8 6 8 9 6 7 8 4 7 7 2 3 2 1 2 1 1 3 3 4 5 7 8 8 8 9 11 10 6 4 3 3 3 5 9 10 8 7 7 7 6 7 8 10 11 12 13 14 13 12 12 8 7 7 8 8 9 9 9 10 12 11 12 11 10 9 9 9 8 8 7
1 4 7 9 9 5 5 5 3 1 3 6 5 3 5 10 8 8 8 5 6 4 5 5 6 1 0 1 1 4 4 4 3 1 3 8 9 7 7 9 10 10 11 12 12 11 8 3 5 6 5 4 5 7 4 3 5 6 8 10 11 13 14 14 12 10 10 10 10 10 11 11 11 13 13 13 11 11 10 10 9 8 8 8 7 7
5 5 8 6 8 8 7 6 7 5 5 4 1 2 3 5 6 4 8 7 6 9 7 7 7 2 2 3 2 5 4 6 9 10 10 9 6 6 7 8 9 8 8 10 11 10 11 14 11 2 2 3 5 6 5 4 3 5 8 8 10 12 12 12 12 11 10 9 9 5 9 14 14 13 13 13 11 11 10 9 8 8 8 8 7 7
2 2 8 10 10 11 11 10 9 8 8 4 3 2 3 3 2 6 7 7 8 6 10 6 3 5 4 4 5 5 8 8 9 9 8 8 7 7 7 8 9 9 9 11 11 12 13 11 12 12 4 4 5 5 5 1 2 3 5 7 7 10 11 12 10 10 11 12 11 9 9 10 11 11 12 11 10 10 9 9 9 9 8 8 8 8
3 2 3 4 5 4 5 5 5 4 5 6 4 3 5 3 4 6 4 5 9 5 7 9 3 8 6 6 6 8 6 7 7 7 7 7 8 9 9 8 8 8 10 11 10 8 9 10 11 10 11 8 5 3 5 4 3 4 6 9 8 7 9 9 9 10 12 10 8 8 6 9 10 9 9 9 9 9 9 9 9 9 9 8 8 7
3 3 5 4 5 4 4 4 5 4 3 5 2 4 4 5 3 4 5 3 6 4 8 4 10 9 8 8 7 9 7 7 7 6 6 7 7 8 8 9 10 10 10 10 10 10 10 9 8 9 9 10 9 7 6 5 6 6 7 9 8 7 7 7 10 11 12 12 11 10 8 9 8 9 9 10 10 10 10 10 9 9 8 8 7 6
4 5 7 8 2 1 3 3 4 6 6 6 7 6 6 6 6 2 3 3 6 2 2 6 1 9 10 10 10 9 8 7 8 8 7 7 8 8 8 9 10 10 10 11 11 10 11 10 9 9 9 9 8 8 8 8 9 8 8 8 9 9 8 8 9 10 11 11 11 10 11 11 9 8 10 11 11 12 11 11 10 9 8 7 6 5
1 4 8 8 9 4 3 1 0 5 7 9 9 8 6 6 6 6 5 7 7 4 4 7 11 11 8 7 7 8 8 8 8 7 7 9 9 8 9 10 10 10 11 11 11 10 10 11 11 10 9 9 8 8 7 7 9 9 10 11 9 8 7 8 10 11 11 11 11 11 11 11 9 9 8 9 11 11 10 10 9 8 7 6 5 5
5 2 8 9 7 6 5 5 4 3 7 11 9 8 7 4 4 7 5 7 4 3 5 6 8 7 5 5 6 6 7 7 8 10 9 9 9 9 10 10 10 10 11 11 11 12 11 11 11 10 10 10 9 9 7 6 9 9 10 9 10 10 11 13 12 12 11 12 12 12 10 10 11 10 9 9 8 9 9 8 6 6 7 6 5 5
5 1 5 7 5 5 6 6 5 5 5 10 11 12 11 9 5 7 5 6 7 3 3 4 4 2 3 6 8 8 7 9 10 10 9 9 9 9 10 10 10 11 11 11 11 11 12 13 12 11 10 9 9 9 7 7 7 10 10 10 10 8 8 10 11 10 10 11 10 11 11 10 11 11 9 8 8 7 7 8 8 6 6 5 4 3
2 3 2 5 6 5 6 6 8 5 2 4 6 9 8 4 7 3 3 8 7 9 4 2 5 6 6 5 7 8 9 10 10 9 9 9 10 10 10 11 11 11 11 11 12 12 12 12 12 12 11 10 10 9 8 8 9 10 10 11 9 8 10 11 10 10 10 10 10 10 9 9 9 9 7 7 8 7 7 8 8 7 6 6 5 5
2 5 3 2 3 6 6 6 4 3 5 2 2 6 6 6 8 6 3 6 8 8 4 6 6 8 7 6 8 8 9 9 9 9 9 7 8 10 11 12 12 11 11 12 12 12 13 12 12 11 11 11 10 8 6 9 9 9 10 9 8 11 9 10 10 10 10 12 11 10 9 9 10 10 9 8 8 9 9 8 7 7 6 6 6 6
3 4 2 3 2 3 4 6 4 5 3 3 2 8 7 2 8 7 5 7 6 6 3 7 8 7 8 9 10 11 11 11 12 12 11 10 10 10 11 12 12 12 12 13 14 13 14 14 14 13 13 12 9 7 6 9 8 8 10 9 11 11 10 10 12 11 12 12 11 10 9 10 10 10 10 10 9 9 9 8 7 8 7 6 6 6
2 3 2 1 1 4 4 5 3 4 3 2 3 7 8 1 7 4 3 6 8 6 3 5 7 7 9 11 11 11 12 12 14 14 13 12 10 10 11 12 11 12 13 12 13 13 13 13 12 12 12 11 10 8 9 10 8 10 11 11 12 10 10 11 12 12 12 12 11 11 10 10 10 10 10 9 10 10 9 8 8 8 7 7 6 5
5 5 4 2 2 2 2 3 6 7 6 9 4 5 8 4 6 4 2 3 7 8 1 6 8 8 9 10 10 10 9 9 12 11 12 11 11 12 13 13 13 13 13 13 13 13 13 12 11 10 11 11 10 10 11 10 10 11 12 12 11 12 11 12 12 11 11 11 11 10 10 9 9 9 9 9 9 9 9 8 8 7 6 7 6 5
5 4 3 3 1 2 4 7 5 4 3 5 6 7 5 5 3 4 3 1 5 6 3 6 8 9 9 8 9 9 6 6 9 7 9 10 10 12 13 13 13 13 12 11 10 11 13 12 12 12 12 12 12 12 11 11 10 10 11 11 10 12 12 13 12 10 11 11 10 9 9 9 9 9 9 9 9 8 7 7 6 6 5 6 5 6
2 6 4 3 3 3 3 3 3 3 4 5 10 9 8 5 2 3 3 2 5 4 1 3 6 8 10 10 6 2 3 1 5 4 4 7 10 11 13 13 14 13 12 12 11 11 12 12 12 11 12 11 13 12 11 10 10 10 11 11 11 11 12 12 11 10 10 10 9 9 9 9 9 9 9 9 8 7 7 6 5 4 3 4 4 3
7 2 3 3 4 2 3 5 6 5 4 9 11 10 7 4 4 3 2 3 5 6 1 3 6 9 9 7 3 2 2 2 7 6 3 8 9 10 12 12 12 12 12 11 11 10 10 10 12 14 13 13 12 11 10 9 9 11 11 10 10 12 12 12 10 9 9 9 8 8 9 9 9 9 8 8 7 6 6 4 4 4 5 3 2 3
5 5 3 7 6 8 9 7 5 4 3 10 11 10 8 2 4 2 3 4 7 6 2 3 6 7 6 3 3 1 5 7 11 9 5 8 10 12 12 11 11 10 9 9 8 8 10 9 10 10 10 8 9 10 9 9 9 10 9 9 11 13 11 10 9 9 9 8 9 9 9 8 8 8 8 7 6 6 5 4 4 4 3 3 3 3
5 3 6 7 6 5 5 7 7 5 3 12 13 8 6 4 1 3 4 5 5 3 4 6 7 4 2 5 6 8 10 12 11 9 9 10 11 12 12 11 10 9 8 8 8 8 8 9 9 9 9 8 8 9 9 9 10 9 9 10 12 10 8 8 8 8 8 9 9 9 9 9 8 7 6 6 5 5 5 5 4 3 2 2 2 2
4 3 5 6 2 3 3 6 4 5 6 16 16 2 12 3 4 3 5 6 6 5 6 7 6 6 7 9 10 12 13 11 10 9 9 9 9 9 9 9 10 11 10 9 8 7 7 7 8 8 7 6 7 7 7 8 9 9 9 11 10 8 8 7 7 8 8 8 9 8 8 8 8 6 5 5 6 5 5 4 4 3 3 2 2 2
9 1 5 4 6 3 5 5 5 3 6 11 11 7 5 4 5 4 4 4 6 6 6 8 9 8 10 11 11 11 11 12 10 10 10 9 9 8 8 9 9 9 8 8 6 5 6 7 7 7 7 7 7 7 6 7 8 8 10 10 6 7 7 7 7 7 8 8 8 7 7 7 7 6 5 5 4 5 5 4 3 3 3 2 1 1
10 9 5 6 6 4 5 5 3 2 5 8 9 7 6 5 4 5 7 5 5 6 8 8 10 10 10 11 11 11 10 9 9 8 9 8 7 7 7 7 7 7 7 6 5 4 6 7 8 8 8 7 7 7 7 7 8 9 10 7 5 5 5 5 4 5 5 5 5 4 4 5 5 5 4 4 4 4 4 4 3 3 3 2 2 2
5 5 8 12 14 15 12 9 7 7 9 11 11 9 8 7 8 8 8 7 8 8 8 9 10 11 10 8 10 9 8 8 9 7 8 7 7 7 6 6 6 5 5 4 5 5 6 6 7 8 9 8 7 7 6 7 7 8 7 5 5 5 5 6 6 7 7 7 7 6 5 5 5 5 4 3 3 4 4 3 4 4 3 3 2 2
8 4 6 6 5 2 6 7 10 10 10 11 12 12 11 10 9 9 9 9 9 10 10 10 9 10 10 8 8 7 8 7 8 7 6 5 5 5 6 6 6 6 6 5 5 5 5 5 6 7 7 8 6 6 6 6 6 6 5 6 5 5 5 5 5 5 5 5 5 5 6 6 5 3 4 4 4 4 4 4 3 3 3 3 3 2
8 4 10 11 11 9 8 9 11 11 11 10 10 11 12 11 11 11 11 11 11 11 10 10 9 9 7 8 6 5 4 4 7 7 6 6 5 4 4 5 5 4 4 4 3 3 4 4 6 6 7 6 5 5 5 5 5 5 5 5 5 5 6 6 5 4 4 5 5 4 4 4 2 4 4 4 4 5 4 4 4 4 5 5 5 5
3 3 5 7 10 11 11 10 10 12 12 12 12 12 11 10 11 11 12 13 13 14 12 10 8 7 6 6 6 5 5 5 5 5 7 7 7 7 7 7 6 6 6 5 4 3 4 4 5 6 6 6 5 5 4 4 4 4 4 4 4 4 4 4 4 4 4 4 3 4 4 4 4 4 4 4 4 6 7 6 6 5 4 6 6 6
5 9 5 5 7 7 6 7 2 4 6 8 10 11 12 11 12 12 12 11 11 11 11 11 9 7 6 5 5 5 6 4 4 4 6 6 6 6 6 6 6 7 7 5 4 4 4 4 5 5 5 5 4 5 5 4 4 3 3 3 3 3 3 3 2 3 3 4 3 3 2 2 3 3 3 3 3 3 5 8 8 6 6 4 8 5
7 8 4 5 4 6 7 6 5 9 10 9 9 9 9 9 9 11 10 10 10 10 11 11 10 9 8 6 4 4 5 5 5 5 6 5 5 5 4 3 3 4 5 5 5 5 5 4 4 4 5 4 3 4 4 4 4 4 3 2 2 2 2 2 2 2 3 3 5 3 2 3 3 2 3 3 2 2 2 5 5 6 6 4 3 2
Wind_Direction
171 208 198 210 219 213 213 224 242 320 303 358 253 254 248 255 255 180 235 257 276 284 259 257 252 255 260 256 244 187 190 215 227 223 226 227 221 214 213 211 218 207 203 202 208 204 199 202 192 202 200 200 198 192 190 184 186 184 183 184 183 184 187 184 176 177 179 176 182 168 191 186 184 173 176 181 178 182 174 175 170 170 173 168 176 182
204 224 219 222 230 237 217 217 237 274 250 256 262 258 252 244 261 128 205 234 232 266 269 262 268 263 259 257 249 209 191 223 230 228 228 232 230 226 219 212 206 206 196 200 207 201 194 208 188 199 207 202 195 192 194 193 191 191 189 190 192 192 195 192 192 182 182 184 169 176 189 184 176 165 189 182 176 176 162 172 167 171 174 171 174 185
209 223 223 223 199 192 213 208 219 232 234 238 250 251 256 253 273 212 248 170 160 226 273 277 273 268 257 253 248 234 211 233 232 237 234 231 230 229 226 216 209 196 193 201 206 195 200 207 191 205 215 212 200 194 197 195 194 196 197 194 189 185 187 196 189 187 190 177 170 203 188 181 170 197 183 173 169 162 163 171 171 174 176 174 179 182
216 221 225 212 171 194 194 212 214 222 235 237 227 235 242 277 290 193 150 168 194 274 296 296 288 279 269 261 255 248 236 230 235 232 234 233 234 233 230 222 210 200 192 198 204 205 202 206 193 206 211 203 199 200 201 200 201 200 200 200 194 191 191 195 195 190 195 173 201 190 171 162 197 157 215 172 154 160 165 167 175 174 181 182 187 184
223 59 138 167 191 204 203 194 208 223 233 224 245 257 260 250 228 269 295 288 295 258 248 270 264 258 246 242 235 222 218 227 223 228 237 240 242 239 238 232 218 208 198 196 196 202 204 202 198 201 207 204 206 205 204 204 205 204 202 197 189 188 191 188 199 200 185 195 185 143 173 170 185 147 191 164 163 164 166 169 180 182 181 186 187 184
245 126 162 201 198 209 214 212 216 233 245 245 223 241 259 275 279 270 263 276 265 258 189 230 260 250 228 225 238 183 188 213 210 216 223 229 235 238 234 229 222 214 206 197 198 204 205 205 198 200 201 207 214 213 209 209 210 206 199 188 167 86 141 191 210 203 203 176 164 164 180 165 136 217 175 173 166 164 166 182 176 180 184 185 187 187
262 139 194 212 206 213 220 227 215 216 252 253 236 199 243 254 260 265 257 237 247 261 139 214 256 270 224 223 207 192 206 207 180 210 224 239 242 234 233 231 222 212 201 199 198 201 204 211 205 191 189 209 221 224 220 218 215 208 191 173 140 168 177 185 184 204 213 187 185 177 187 173 173 179 180 166 155 159 163 170 171 178 177 186 183 185
217 190 206 196 204 216 218 229 216 218 240 246 80 238 258 258 245 242 242 235 263 348 168 216 245 270 264 238 209 203 226 224 199 170 215 253 267 255 243 236 232 213 203 203 205 203 191 199 206 203 196 209 220 223 212 211 215 206 186 157 156 153 168 195 186 194 207 216 189 178 168 169 185 179 157 167 155 161 159 160 167 167 175 185 183 180
188 191 200 200 213 222 224 223 174 198 233 262 80 245 250 267 262 243 230 233 255 287 246 209 215 247 247 253 179 202 230 225 179 138 67 341 300 261 251 237 222 210 199 197 196 204 187 187 188 191 198 211 216 213 205 225 218 206 184 140 140 162 171 185 187 187 209 209 156 178 186 179 181 188 166 178 160 158 151 157 156 169 173 174 179 184
189 195 200 219 216 224 231 236 227 205 233 244 234 269 280 264 261 240 224 232 206 231 245 235 198 248 251 248 211 186 235 235 115 329 19 354 318 290 226 224 207 187 187 190 188 194 185 188 190 200 204 210 198 120 211 243 217 194 190 148 150 154 185 193 188 188 199 162 115 167 150 111 155 293 213 169 150 150 159 156 159 166 170 169 176 183
97 62 335 235 213 229 236 235 231 216 232 24 221 230 209 216 203 195 237 235 226 234 239 244 193 241 264 252 268 249 25 5 344 0 357 358 336 199 189 194 198 178 174 181 181 177 188 191 187 200 155 77 79 84 81 56 9 311 264 167 154 145 178 179 183 181 169 123 165 155 147 127 199 174 198 155 157 154 160 164 164 168 169 172 171 167
179 152 196 198 232 232 283 192 198 234 238 228 235 233 214 202 187 210 199 211 233 243 241 195 221 226 257 242 135 79 101 7 355 347 351 353 8 56 167 178 173 170 163 160 160 162 143 147 144 133 113 111 139 147 149 165 189 151 96 8 112 148 165 158 115 92 89 148 173 153 142 167 170 182 190 165 161 164 165 164 165 169 168 165 165 170
214 213 218 208 180 230 202 238 151 191 195 217 230 234 232 210 195 214 199 205 219 247 116 161 179 222 235 280 84 94 21 14 10 345 346 344 345 84 141 152 144 141 146 158 166 154 166 172 165 145 135 153 160 156 153 173 173 132 146 85 75 76 136 151 136 109 122 150 153 159 162 162 159 180 182 163 158 168 165 164 168 168 166 160 162 166
217 214 207 217 204 205 227 222 171 193 197 208 216 215 224 225 211 227 219 222 236 190 120 221 209 261 268 176 45 36 35 15 9 3 357 338 356 75 122 136 143 152 156 167 171 175 192 191 149 140 146 154 150 130 134 127 91 83 86 93 107 119 161 169 155 140 151 172 176 185 160 151 166 162 172 164 166 168 169 169 166 168 161 160 163 163
221 196 204 204 215 187 212 225 219 211 185 211 222 227 231 243 241 227 232 229 235 253 149 143 217 249 248 80 39 41 47 22 25 21 26 23 26 56 89 127 141 145 150 164 177 194 180 148 145 147 146 148 154 152 128 120 126 124 131 136 154 169 174 164 153 148 152 161 170 193 189 148 155 163 168 167 168 171 167 166 163 164 160 163 159 162
230 251 126 194 287 172 204 205 232 247 254 205 216 235 244 242 237 255 351 309 289 238 186 175 253 274 328 135 140 216 87 47 32 59 59 73 128 119 127 138 148 144 127 117 114 106 110 119 130 135 133 132 133 127 119 137 145 137 140 145 158 172 170 164 157 154 150 157 172 189 162 163 172 169 162 164 167 171 172 165 167 162 164 156 153 144
191 234 151 158 163 210 216 201 204 219 226 170 203 215 227 251 254 248 164 82 128 258 265 208 233 242 131 179 140 161 156 110 51 21 110 100 93 76 109 149 174 150 124 128 132 129 133 138 134 134 147 156 146 144 144 178 168 154 149 149 153 161 167 162 153 141 139 147 162 183 171 169 179 176 168 163 166 174 174 170 167 162 161 147 149 140
250 212 142 184 192 200 237 230 230 206 234 161 221 217 165 241 282 248 253 180 236 251 242 201 245 247 221 214 194 166 183 186 81 105 100 118 140 139 159 167 126 100 97 115 120 127 136 134 136 145 154 149 146 150 152 185 174 157 161 160 157 162 170 169 159 158 147 157 160 174 181 183 180 176 161 153 166 174 174 172 172 159 156 157 147 150
244 236 176 197 148 138 171 203 215 219 229 232 254 353 227 195 218 205 243 239 244 243 260 232 239 259 263 229 216 180 187 169 152 114 148 131 142 104 112 100 89 100 107 119 126 132 137 135 141 149 147 141 142 148 147 166 182 178 170 153 165 171 173 172 167 163 163 168 169 171 178 173 176 177 160 152 161 172 178 175 169 162 158 150 154 155
206 252 190 141 219 151 184 198 211 189 197 232 269 246 243 276 246 221 209 255 249 259 242 241 196 257 261 56 166 136 149 130 109 180 85 79 86 122 145 113 107 92 97 117 115 120 125 127 133 140 144 141 143 145 148 162 180 176 164 159 165 166 168 168 172 172 165 164 167 172 169 169 173 172 155 156 164 177 178 174 166 162 154 154 155 152
225 209 255 159 155 166 205 190 222 200 191 196 216 231 208 238 339 299 237 233 238 245 241 250 246 145 73 36 65 97 97 113 144 96 75 57 66 79 82 84 104 95 100 93 83 99 117 130 136 145 143 133 131 135 154 164 175 166 155 163 166 166 167 169 172 175 173 160 167 170 164 164 159 155 159 167 173 178 176 172 165 160 156 153 155 154
231 198 232 196 201 209 217 92 11 304 278 230 216 222 217 222 210 219 233 208 253 252 257 250 240 89 78 32 52 103 83 108 155 103 111 99 84 84 68 72 93 120 73 58 74 105 111 133 134 141 137 135 132 153 154 165 171 159 154 153 154 163 164 166 168 175 176 170 158 160 145 141 141 164 169 174 175 176 172 169 165 158 157 154 150 160
263 234 229 235 224 235 111 108 76 46 297 276 256 243 237 242 232 230 247 200 221 239 267 273 290 144 46 21 56 108 47 329 123 118 122 124 92 62 51 50 45 37 31 40 73 121 134 131 138 145 145 145 141 146 155 169 160 151 155 155 154 158 156 158 167 170 153 163 139 138 140 144 167 181 176 174 177 174 169 167 159 159 158 152 151 155
143 233 223 241 236 201 149 135 130 143 204 198 197 254 239 237 241 242 247 291 243 198 222 230 238 116 60 234 215 137 59 51 75 53 129 88 68 67 59 49 41 37 35 26 17 11 5 358 139 144 143 129 133 126 116 169 153 147 158 160 152 151 150 155 166 158 153 151 154 150 157 166 175 181 179 176 173 165 164 159 158 159 156 149 152 147
208 218 255 226 217 210 190 182 198 170 225 241 152 82 326 286 267 217 249 239 252 243 234 245 251 88 105 187 137 175 114 65 47 44 48 65 66 61 46 37 34 35 39 40 27 17 18 14 351 287 136 124 97 84 64 324 196 160 151 153 149 147 143 151 156 159 150 123 112 128 175 169 168 170 171 169 165 157 152 152 155 154 147 149 147 140
206 265 211 226 219 211 203 205 207 189 209 118 101 93 37 332 266 223 228 227 247 224 232 233 249 129 122 165 126 116 80 76 61 55 59 62 56 47 44 37 29 25 25 29 34 30 27 24 23 5 3 109 99 122 127 255 239 122 129 123 136 144 145 152 148 142 132 118 141 175 187 149 147 152 157 153 148 142 140 143 145 145 149 148 140 145
182 122 306 305 304 299 1 6 336 328 175 200 109 62 39 12 307 269 293 247 242 229 219 238 221 145 165 165 155 121 93 86 70 50 53 61 59 58 54 52 49 37 32 34 33 32 26 31 24 13 19 15 66 66 69 95 83 103 120 123 133 139 138 136 136 128 125 141 155 149 175 139 136 137 136 134 134 133 134 134 135 134 132 132 137 140
221 210 180 245 291 350 343 344 18 1 100 72 81 47 30 15 341 259 243 281 5 303 242 123 141 150 145 157 146 102 92 76 70 59 51 57 58 64 67 72 72 62 49 45 42 33 33 23 22 27 22 17 21 42 60 100 128 133 122 117 115 114 123 139 140 142 141 141 141 156 147 122 114 128 132 137 137 140 133 128 125 122 124 127 125 123
297 234 158 181 157 35 334 11 50 66 66 72 61 40 31 17 19 331 17 14 324 268 269 309 199 117 86 45 50 71 80 74 75 69 60 64 69 74 77 68 57 58 53 48 38 26 33 27 24 25 34 28 21 57 62 73 75 76 97 110 114 123 131 132 134 130 133 136 135 127 113 103 114 123 132 129 135 133 125 120 118 121 121 122 118 117
111 250 156 164 137 128 91 71 297 109 94 70 48 42 23 31 35 25 32 10 1 40 92 121 82 69 45 56 48 59 73 83 81 79 73 66 64 67 66 58 55 53 53 52 44 35 37 43 35 33 37 40 40 45 51 75 86 83 77 77 81 84 96 123 119 119 115 117 121 124 131 134 127 115 104 118 118 112 103 100 98 95 92 94 109 110
342 175 165 160 158 144 122 117 114 127 98 85 66 49 36 27 63 36 16 5 304 71 69 120 112 79 54 69 78 68 82 89 82 68 63 59 58 63 64 59 53 54 53 51 51 45 40 39 38 36 35 40 42 55 46 51 85 85 73 74 71 60 66 78 87 97 107 112 118 116 103 106 115 109 99 100 87 95 101 95 88 89 81 66 53 64
299 28 303 212 185 142 159 155 125 119 115 90 58 34 28 26 37 13 16 2 331 2 136 140 149 117 97 98 85 70 71 68 65 61 59 57 58 62 64 60 55 52 49 51 48 45 45 44 41 33 34 35 39 42 37 37 49 63 63 59 62 65 73 82 86 86 84 95 99 104 108 109 114 111 97 90 81 80 86 86 75 67 79 91 86 71
332 124 191 220 229 139 151 159 142 152 128 198 33 1 349 10 11 9 47 24 3 326 274 231 63 84 119 114 92 70 62 62 62 56 63 66 65 66 65 63 60 56 54 53 49 48 47 48 43 38 35 30 25 17 25 58 55 58 64 63 56 60 61 68 72 73 75 86 93 99 107 116 121 117 94 79 82 79 78 85 91 96 99 94 92 99
201 192 217 32 261 129 152 146 147 195 217 77 39 12 349 6 2 5 23 10 355 348 10 32 108 123 123 111 91 83 71 63 63 57 55 64 73 74 71 69 64 62 59 55 54 52 52 51 46 45 44 42 25 15 23 62 61 58 59 61 51 61 51 64 66 69 64 65 63 70 83 94 98 100 99 99 95 89 84 75 76 89 91 94 95 94
219 205 220 176 236 139 159 172 193 213 72 161 173 26 2 3 18 354 32 38 5 359 52 89 97 109 98 98 101 100 91 79 65 55 55 61 68 72 76 72 66 67 65 62 58 54 55 49 43 42 43 32 16 6 40 57 56 68 64 61 62 54 59 58 64 61 64 64 57 56 59 71 80 85 89 91 91 88 88 90 87 79 73 73 73 76
207 212 162 222 82 117 172 184 215 72 71 128 152 30 1 92 8 337 201 46 13 6 44 102 106 113 112 113 112 107 98 85 72 57 52 53 59 74 78 72 70 68 68 65 64 58 55 51 43 34 34 22 21 19 38 46 49 66 68 64 64 60 57 64 64 59 59 63 61 59 57 59 65 71 73 78 88 90 86 81 79 79 76 76 72 65
267 258 222 157 277 221 82 66 81 135 120 56 51 9 18 351 343 358 345 33 14 345 12 131 122 119 120 119 122 120 112 93 66 45 40 53 64 70 74 78 78 78 77 71 67 68 65 58 55 37 36 20 11 23 31 34 44 55 60 58 65 73 72 70 64 59 63 64 61 62 63 57 61 63 60 58 58 61 68 69 67 68 72 77 66 61
255 251 224 225 174 257 142 127 147 176 98 47 23 350 354 331 293 268 243 164 34 16 42 126 132 131 125 128 133 141 153 76 68 50 33 52 67 74 77 81 81 80 75 73 67 65 65 61 52 43 41 27 18 16 23 16 28 49 58 62 66 68 68 68 66 63 66 68 66 64 65 64 64 67 63 60 61 56 53 53 53 51 45 69 66 61
284 218 249 238 147 212 169 132 61 66 71 23 349 342 343 333 274 192 240 85 21 20 354 143 133 139 138 144 158 191 279 172 97 91 29 55 67 73 81 81 81 76 73 68 63 61 58 57 55 53 47 32 31 18 14 23 33 40 49 50 58 61 62 62 61 60 62 64 66 68 69 69 70 72 71 71 70 64 55 54 55 49 59 72 81 77
14 2 191 134 110 47 87 90 81 43 26 349 340 337 339 316 198 180 228 87 6 348 70 151 146 140 143 140 169 265 304 182 148 145 108 72 78 85 84 82 77 73 69 63 57 52 47 45 49 44 40 32 25 23 23 23 40 45 47 48 53 57 55 52 51 52 58 62 62 64 67 66 66 69 73 75 75 75 77 71 70 55 54 54 77 94
354 17 20 110 105 97 95 101 109 95 45 350 342 337 344 8 206 255 20 351 335 327 97 145 142 147 154 196 318 17 38 70 112 124 130 108 96 92 89 83 78 78 74 66 61 59 56 43 44 46 38 22 15 22 31 34 45 49 43 46 51 49 47 47 47 49 50 53 55 58 60 61 61 64 66 69 73 74 71 72 71 65 59 58 45 52
26 2 55 52 69 76 91 93 100 92 39 349 341 332 349 249 338 42 2 327 303 329 103 126 136 139 62 34 79 97 100 100 111 119 117 112 107 99 88 83 76 70 64 65 52 52 59 57 54 46 39 25 24 23 30 41 50 50 47 49 48 40 37 44 46 48 50 52 51 49 50 50 50 53 55 54 62 70 72 64 59 57 66 72 86 89
11 2 58 64 51 95 94 89 96 48 25 0 335 296 14 33 27 330 326 15 37 73 74 73 66 65 92 95 102 107 107 106 111 112 109 107 105 102 97 94 91 94 88 78 69 60 62 62 59 53 46 28 31 37 37 46 53 53 53 56 49 39 36 42 52 58 57 56 56 53 49 47 43 45 46 51 52 57 61 60 60 59 55 61 78 70
340 65 90 76 342 65 75 62 57 28 315 351 14 40 357 9 325 302 280 55 44 44 61 72 70 84 99 105 103 100 103 107 107 111 111 107 108 108 106 107 109 105 99 89 83 79 81 82 72 63 47 38 37 46 46 46 57 56 60 57 58 58 49 41 40 57 65 61 55 50 46 42 41 40 43 44 58 68 69 70 75 68 57 44 21 53
20 57 27 75 28 42 70 78 87 30 26 37 37 42 34 8 4 41 88 79 73 65 70 76 78 75 83 95 100 102 100 101 109 116 115 121 122 123 120 119 118 117 109 104 95 88 85 86 88 85 70 47 42 50 60 61 63 62 59 47 47 53 62 64 57 59 62 61 60 60 63 61 54 50 41 43 49 60 70 73 63 82 78 72 59 37
77 42 88 90 91 92 79 85 89 74 60 59 57 54 57 61 51 60 69 73 64 72 72 87 93 90 83 86 97 94 101 115 115 118 121 127 131 129 126 124 127 122 111 99 100 90 88 89 88 87 85 72 60 57 57 63 65 70 70 59 50 45 46 43 40 39 38 40 37 32 34 47 63 62 58 57 67 62 56 44 49 46 48 41 42 32
83 110 107 97 162 150 74 74 73 73 77 73 70 65 65 66 74 78 77 78 82 81 84 80 85 93 98 92 85 98 107 113 116 117 124 127 129 134 132 133 133 132 131 117 108 118 108 103 95 90 86 79 72 71 65 60 55 57 55 50 46 46 47 51 53 54 47 37 40 41 39 33 25 44 59 38 41 52 45 39 40 54 41 34 27 28
90 25 84 74 85 89 102 93 86 81 77 72 70 73 70 70 77 83 93 97 96 92 88 93 93 90 93 91 95 89 87 90 103 112 122 133 145 154 149 139 134 110 95 100 96 77 84 91 97 100 97 87 77 69 66 63 60 55 48 46 43 49 47 42 39 49 50 44 43 33 34 55 304 312 57 44 38 36 36 41 35 40 42 22 14 357
42 246 93 103 95 97 99 99 100 90 78 74 74 72 78 88 95 101 105 109 111 108 104 98 96 99 92 89 84 77 66 39 30 60 84 99 115 130 144 156 154 145 141 141 137 136 126 129 121 118 113 112 111 101 89 79 71 66 62 50 46 42 55 63 61 50 50 41 46 53 45 38 34 32 24 44 53 56 37 24 18 17 45 54 18 14
108 81 130 121 104 95 94 112 135 109 99 90 83 85 90 93 96 102 106 111 113 116 121 120 119 119 116 110 110 111 105 97 73 77 79 67 71 80 99 123 144 151 153 145 146 137 127 119 117 108 101 99 102 102 103 105 102 93 81 91 93 92 79 66 71 79 69 54 45 55 69 61 58 38 41 39 46 71 93 48 31 26 356 49 73 55
65 11 34 83 95 104 96 94 83 89 94 94 100 102 100 97 103 106 111 116 119 120 128 128 129 128 128 129 129 124 106 101 91 84 81 70 62 57 64 89 126 148 148 149 149 142 138 126 109 99 88 85 81 79 72 68 67 75 75 79 79 69 67 98 106 93 82 73 64 353 9 58 45 46 63 64 61 55 114 147 113 81 87 69 43 14